Weather Roundup
Issued by NWS

Home | Current Version | Previous Version | Text Only | Print | Product List | Glossary On
Versions: 1 2 3 4 5 6 7 8 9 10 11 12 13 14 15 16 17 18 19 20 21 22 23 24 25 26 27 28 29 30 31 32 33 34 35 36 37 38 39 40 41 42 43 44 45 46 47 48 49 50
000
NZUS93 KARX 142010
HRRWXR

CURRENT HOURLY OBSERVATIONS ACROSS
MUCH OF THE UPPER MISSISSIPPI VALLEY
NATIONAL WEATHER SERVICE LA CROSSE WI
200 PM CST THU DEC 14 2017


...SOUTHEAST MINNESOTA...


CITY           SKY/WX    TMP DP  RH WIND       PRES   REMARKS
ROCHESTER      CLOUDY    21  16  81 W12       30.00F WCI   9
ROCHESTER/MAYO CLOUDY    24  17  75 W8        30.01F WCI  15
WINONA           N/A     28  14  54 W6        30.04F WCI  22
AUSTIN         CLOUDY    23  16  74 W9        30.01S WCI  13
ALBERT LEA     CLOUDY    21  16  79 W6        30.01F WCI  14
DODGE CENTER   CLOUDY    21  16  79 W9        30.00S WCI  11
PRESTON        CLOUDY    25  14  62 SW10G17   30.01S WCI  15
OWATONNA       CLOUDY    23  18  80 W10       30.01F WCI  12
FARIBAULT      CLOUDY    21  18  86 W7        30.03S WCI  13
$$

...ELSEWHERE IN MINNESOTA...


CITY           SKY/WX    TMP DP  RH WIND       PRES   REMARKS
MINNEAPOLIS    FLURRIES  22  17  81 SW7       30.02F WCI  13
INTNL FALLS    LGT SNOW  15   7  70 W6        29.93F WCI   6
DULUTH         FLURRIES  16  10  77 NW9       29.91F WCI   4
RED WING       CLOUDY    25  14  63 W6        30.02F WCI  18
REDWOOD FALLS  CLOUDY    27  19  72 NW8       30.03F WCI  19
MANKATO        FLURRIES  22  18  85 NW10      30.03F WCI  11
WORTHINGTON    FLURRIES  31  23  72 N10       30.02S WCI  22
FAIRMONT       CLOUDY    28  21  75 NW12      30.03S WCI  18
$$

...SOUTHWEST WISCONSIN...


CITY           SKY/WX    TMP DP  RH WIND       PRES   REMARKS
LA CROSSE      CLOUDY    26  13  57 S8        30.04F WCI  18
PRAIRIE DU CHI SUNNY     28  10  46 SW3       30.05F
BOSCOBEL       SUNNY     28  11  48 SW6       30.05F WCI  22
LONE ROCK      SUNNY     26  13  57 NW7       30.05F WCI  18
PLATTEVILLE    SUNNY     27  12  53 SW3       30.03F
FORT MC COY    CLOUDY    27  14  58 W3        30.03F
CAMP DOUGLAS   PTSUNNY   25  12  58 W6        30.01F WCI  18
MAUSTON-NEW LI MOCLDY    26  13  59 NW7       30.01F WCI  18
VIROQUA        MOCLDY    24  14  66 SW6       30.01F WCI  17
WIS DELLS      PTSUNNY   25  11  55 W6        30.02F WCI  18
$$

...ELSEWHERE IN WISCONSIN...


CITY           SKY/WX    TMP DP  RH WIND       PRES   REMARKS
MILWAUKEE      MOSUNNY   24  10  55 W7        30.04F WCI  16
MADISON        MOSUNNY   26  10  50 W8        30.03F WCI  18
GREEN BAY      SUNNY     20  10  65 W8        30.01S WCI  10
EAU CLAIRE     CLOUDY    23  13  65 W10G20    29.99F WCI  12
BLACK RVR FLS  CLOUDY    26  12  54 SW5       30.01F WCI  21
MEDFORD        FLURRIES  18  16  92 W7        29.94F WCI   8
WAUSAU         FLURRIES  19  14  81 W8        29.95F WCI   9
WIS RAPIDS     CLOUDY    23  12  62 W5        30.01F WCI  17
MARSHFIELD     FLURRIES  19  14  81 W8        29.96F WCI   9
RICE LAKE      FLURRIES  20  14  78 W3        30.00S
$$

...NORTHEAST IOWA...


CITY           SKY/WX    TMP DP  RH WIND       PRES   REMARKS
WATERLOO       PTSUNNY   26  15  63 W8        30.05S WCI  18
DUBUQUE        SUNNY     25  12  58 SW5       30.04S WCI  19
DECORAH        CLOUDY    25  14  63 VRB6      30.01F WCI  18
MASON CITY     CLOUDY    25  17  72 W9        30.04F WCI  15
CHARLES CITY   CLOUDY    25  16  68 SW7       30.03F WCI  17
OELWEIN        PTSUNNY   27  18  69 SW9       30.04S WCI  17
$$

...ELSEWHERE IN IOWA...


CITY           SKY/WX    TMP DP  RH WIND       PRES   REMARKS
DES MOINES     CLOUDY    32  18  56 VRB3      30.06S
IOWA CITY      CLOUDY    28  16  60 N3        30.09S
FORT DODGE     CLOUDY    31  22  69 W9        30.04F WCI  23
MARSHALLTOWN   CLOUDY    27  17  66 NW9       30.05S WCI  18
CEDAR RAPIDS   CLOUDY    25  16  68 NW6       30.06S WCI  18
$$

...NORTHERN ILLINOIS...


CITY           SKY/WX    TMP DP  RH WIND       PRES   REMARKS
CHICAGO-OHARE  PTSUNNY   26   9  48 NW6       30.04S WCI  19
CHICAGO-MIDWAY CLOUDY    28   9  44 W9        30.04S WCI  19
MOLINE         CLOUDY    29  16  58 VRB3      30.07S
ROCKFORD       MOSUNNY   27  10  49 W7        30.06F WCI  19
PEORIA         CLOUDY    30  13  49 VRB6      30.07S WCI  24
$$

NOTE: "FAIR" INDICATES FEW OR NO CLOUDS BELOW 12,000 FEET WITH NO
SIGNIFICANT WEATHER AND/OR OBSTRUCTIONS TO VISIBILITY. WIND
SPEEDS ARE IN MILES-PER-HOUR.




USA.gov is the U.S. government's official web portal to all federal, state and local government web resources and services.